Regional Weather Roundup
Issued by NWS

Home | Current Version | Previous Version | Graphics & Text | Print | Product List | Glossary On
Versions: 1 2 3 4 5 6 7 8 9 10 11 12 13 14 15 16 17 18 19 20 21 22 23 24 25 26 27 28 29 30 31 32 33 34 35 36 37 38 39 40 41 42 43 44 45 46 47 48 49 50
017
ASUS43 KOAX 220910
RWRNE

WEATHER ROUNDUP FOR NEBRASKA
NATIONAL WEATHER SERVICE OMAHA NE
300 AM CST SUN JAN 22 2017

NOTES: SATELLITE DATA IS BEING USED TO AUGMENT CLOUD COVER ABOVE
       12000 FEET.
       "FAIR" INDICATES FEW OR NO CLOUDS BELOW 12,000 FEET WITH NO
       SIGNIFICANT WEATHER AND/OR OBSTRUCTIONS TO VISIBILITY.

  * THESE STATIONS DO NOT REPORT WEATHER SUCH AS RAIN...SNOW OR FOG.

NEZ001>004-019>022-054>056-221000-
NEBRASKA PANHANDLE

CITY           SKY/WX    TMP DP  RH WIND       PRES   REMARKS
SCOTTSBLUFF    CLEAR     26  22  84 NW7       29.74R WCI  18
ALLIANCE       CLEAR     18  16  92 W8        29.70R WCI   8
CHADRON        CLEAR     20  18  92 CALM      29.74R
KIMBALL        CLOUDY    32  25  77 NW14      29.73R WCI  22
SIDNEY         CLOUDY    31  25  78 NW14      29.71R WCI  21
$$

NEZ057>060-069>072-079>082-221000-
SOUTHWEST NEBRASKA

CITY           SKY/WX    TMP DP  RH WIND       PRES   REMARKS
NORTH PLATTE   CLEAR     23  21  92 NW6       29.69R WCI  16
IMPERIAL       MOCLDY    31  25  78 NW7       29.70R WCI  24
LEXINGTON      PTCLDY    30  28  91 NW8       29.67R WCI  23
MCCOOK         CLEAR     30  27  88 NW9       29.68R WCI  22
OGALLALA       CLOUDY    26  24  93 SW3       29.70R
$$

NEZ005>010-023>029-035>040-094-221000-
NORTH CENTRAL NEBRASKA

CITY           SKY/WX    TMP DP  RH WIND       PRES   REMARKS
VALENTINE      CLEAR     26  22  84 NW8       29.69R WCI  18
AINSWORTH      CLEAR     27  26  96 W7        29.68R WCI  20
BROKEN BOW     CLEAR     34  30  85 N12       29.66R WCI  25
O`NEILL        CLOUDY    30  28  93 NW7       29.66R WCI  23
ORD            CLEAR     29  25  85 NW9       29.65R WCI  20
THEDFORD       CLEAR     26  25  94 W5        29.69R WCI  20
$$

NEZ041-046>049-061>064-073>077-083>087-221000-
SOUTH CENTRAL NEBRASKA

CITY           SKY/WX    TMP DP  RH WIND       PRES   REMARKS
GRAND ISLAND   CLOUDY    30  29  96 NW5       29.65R WCI  25
AURORA         PTCLDY    32  32  97 N12       29.63R WCI  23
HASTINGS       CLEAR     33  29  85 N10       29.65R WCI  25
HEBRON         PTCLDY    32  32 100 CALM      29.63R FOG
HOLDREGE       CLOUDY    32  30  91 NW7       29.66R WCI  26
KEARNEY *      CLEAR    N/A N/A N/A MISG        N/A
YORK           CLEAR     32  32 100 N7        29.63R WCI  26
$$

NEZ011>018-030>034-042>045-221000-
NORTHEAST NEBRASKA

CITY           SKY/WX    TMP DP  RH WIND       PRES   REMARKS
NORFOLK        CLEAR     27  25  92 NW7       29.62R FOG     WCI  19
ALBION         CLEAR     30  25  81 NW12      29.63R WCI  20
BLAIR          PTCLDY    32  30  92 N9        29.62R FOG     WCI  24
FREMONT        CLEAR     29  29 100 NW6       29.64R WCI  23
TEKAMAH        CLEAR     31  27  85 NW6       29.65R WCI  25
WAYNE          CLOUDY    30  30  99 NW10      29.64R FOG     WCI  21
$$

NEZ050>053-065>068-078-088>093-221000-
SOUTHEAST NEBRASKA

CITY           SKY/WX    TMP DP  RH WIND       PRES   REMARKS
LINCOLN        CLEAR     31  29  92 N3        29.65R
OMAHA EPPLEY   PTCLDY    30  26  85 N7        29.64R WCI  23
BEATRICE       CLOUDY    31  31 100 NW5       29.61R WCI  26
FALLS CITY     CLOUDY    35  34  96 NW6       29.58R WCI  30
NEBRASKA CITY  PTCLDY    34  34  99 N9        29.60R WCI  27
PLATTSMOUTH    CLEAR     32  29  91 N5        29.62R FOG     WCI  27
$$

NEZ044-045-051>053-067-221000-
OMAHA AREA

CITY           SKY/WX    TMP DP  RH WIND       PRES   REMARKS
OMAHA EPPLEY   PTCLDY    30  26  85 N7        29.64R WCI  23
BLAIR          PTCLDY    32  30  92 N9        29.62R FOG     WCI  24
FREMONT        CLEAR     29  29 100 NW6       29.64R WCI  23
MILLARD        CLEAR     34  32  91 NW3       29.63R
OFFUTT AFB     CLEAR     30  30 100 CALM      29.62R
PLATTSMOUTH    CLEAR     32  29  91 N5        29.62R FOG     WCI  27
WAHOO          FAIR      30  29  96 NW5       29.64R WCI  25
$$




USA.gov is the U.S. government's official web portal to all federal, state and local government web resources and services.